Weather in Guwahati

India     26°10′40″N   91°44′51″E
temp.,
°C
wind,
m/s
gust,
m/s
humid.,
%
clouds,
%
prec.,
mm/h
press.,
hPa
HPBL,
m
1 march, mon
mon123:30+21e35620 0.0 1013130
02:30+20ene22620 0.0 101268
05:30+18e35660 0.0 1012108
08:30+25ene33470 0.0 1015479
11:30+31nnw14310 0.0 10131575
14:30+33w812150 0.0 10123320
17:30+28wnw36210 0.0 1012206
20:30+23s11270 0.0 101526
2 march, tue
tue223:30+20ene23420 0.0 101554
02:30+18e22580 0.0 101437
05:30+17ene23650 0.0 101471
08:30+24e46440 0.0 1016470
11:30+31ene23230 0.0 10151433
14:30+33w713150 0.0 10123605
17:30+28wnw510190 0.0 1012348
20:30+23sse11271 0.0 101432
3 march, wed
wed323:30+21ese11302 0.0 101429
02:30+19e23410 0.0 101352
05:30+17e22500 0.0 101448
08:30+24ene47340 0.0 1016459
11:30+31ene44220 0.0 1013988
14:30+33nne12160 0.0 10102293
17:30+27se11220 0.0 101126
20:30+24sw232446 0.0 101452
4 march, thu
thu423:30+21sw113023 0.0 101326
02:30+19e11350 0.0 101225
05:30+18ene22390 0.0 101334
08:30+25ene33310 0.0 1014406
11:30+31ene32210 0.0 10131283
14:30+33w47130 0.0 10102623
17:30+27w35170 0.0 1010139
20:30+23ssw22210 0.0 101335
5 march, fri
fri523:30+21s11280 0.0 101231
02:30+18ene12300 0.0 101127
05:30+17ene22390 0.0 101248
08:30+24e34320 0.0 1015474
11:30+30ne22220 0.0 10121299
14:30+33w47170 0.0 10092177
17:30+28sw35283 0.0 1009148
20:30+24s223923 0.1 101236